Location: Puketoi
(40.5833°S, 176.0167°E)
Time: 15:34:46
(UTC+00:00)

Cosmos 2227 Rocket - Pass Details

Date: 08 February 2023
Orbit: 839 x 845 km, 71.0° (Epoch: 22 March)

Event Time Altitude Azimuth Distance (km) Brightness Sun altitude
Rises 16:13:24 0° 212° (SSW) 3,427 5.4 -14.2°
Reaches altitude 10° 16:16:01 10° 219° (SW) 2,486 4.6 -13.8°
Maximum altitude 16:21:12 37° 285° (WNW) 1,290 2.7 -12.9°
Drops below altitude 10° 16:26:21 10° 351° (N) 2,460 4.2 -12.1°
Sets 16:28:56 0° 358° (N) 3,387 5.0 -11.7°
